Wetterdaten: Sonntag, 03.01.2016
Datum Zeit Temp. A. Feuchte A. Luftdruck Regen Wind Richtung Richtung Sonnenschein ET UV Solar Taupunkt Windchill Windben Empfang
03.01.2016 00:00 -3,0 C 93 % 1016,2 hPa 0,0 l/m 17,5 km/h (3 Bft) O-NO 67 0 min 0,000 mm 0,0 UV-I 0 W/m -4,0 C -12,2 C 24,1 km/h (4 Bft) 98,90 %
03.01.2016 00:05 -3,1 C 93 % 1016,1 hPa 0,0 l/m 16,4 km/h (3 Bft) O-NO 78 0 min 0,000 mm 0,0 UV-I 0 W/m -4,1 C -11,6 C 25,7 km/h (4 Bft) 98,20 %
03.01.2016 00:10 -3,1 C 93 % 1016,2 hPa 0,0 l/m 20,7 km/h (4 Bft) NO 39 0 min 0,000 mm 0,0 UV-I 0 W/m -4,1 C -14,0 C 32,2 km/h (5 Bft) 100,00 %
03.01.2016 00:15 -3,1 C 93 % 1016,2 hPa 0,0 l/m 19,0 km/h (3 Bft) O 84 0 min 0,000 mm 0,0 UV-I 0 W/m -4,1 C -13,1 C 30,6 km/h (5 Bft) 100,00 %
03.01.2016 00:20 -3,1 C 93 % 1016,2 hPa 0,0 l/m 20,0 km/h (4 Bft) O-NO 72 0 min 0,000 mm 0,0 UV-I 0 W/m -4,1 C -13,6 C 30,6 km/h (5 Bft) 96,43 %
03.01.2016 00:25 -3,1 C 93 % 1016,1 hPa 0,0 l/m 16,5 km/h (3 Bft) NO 52 0 min 0,000 mm 0,0 UV-I 0 W/m -4,1 C -11,7 C 22,5 km/h (4 Bft) 96,43 %
03.01.2016 00:30 -3,1 C 93 % 1016,1 hPa 0,0 l/m 14,9 km/h (3 Bft) O-NO 59 0 min 0,000 mm 0,0 UV-I 0 W/m -4,1 C -10,7 C 24,1 km/h (4 Bft) 97,62 %
03.01.2016 00:35 -3,1 C 93 % 1016,1 hPa 0,0 l/m 15,1 km/h (3 Bft) O-NO 78 0 min 0,000 mm 0,0 UV-I 0 W/m -4,1 C -10,8 C 22,5 km/h (4 Bft) 97,39 %
03.01.2016 00:40 -3,1 C 93 % 1016,1 hPa 0,0 l/m 19,1 km/h (3 Bft) O 80 0 min 0,000 mm 0,0 UV-I 0 W/m -4,1 C -13,2 C 33,8 km/h (5 Bft) 97,52 %
03.01.2016 00:45 -3,1 C 93 % 1016,0 hPa 0,0 l/m 21,8 km/h (4 Bft) NO 54 0 min 0,000 mm 0,0 UV-I 0 W/m -4,1 C -14,5 C 30,6 km/h (5 Bft) 97,14 %
03.01.2016 00:50 -3,1 C 93 % 1016,1 hPa 0,0 l/m 18,5 km/h (3 Bft) O-NO 69 0 min 0,000 mm 0,0 UV-I 0 W/m -4,1 C -12,8 C 27,4 km/h (4 Bft) 97,46 %
03.01.2016 00:55 -3,1 C 93 % 1016,0 hPa 0,0 l/m 16,4 km/h (3 Bft) O-NO 74 0 min 0,000 mm 0,0 UV-I 0 W/m -4,1 C -11,6 C 25,7 km/h (4 Bft) 99,16 %
03.01.2016 01:00 -3,2 C 93 % 1015,9 hPa 0,0 l/m 16,1 km/h (3 Bft) NO 55 0 min 0,000 mm 0,0 UV-I 0 W/m -4,2 C -11,6 C 22,5 km/h (4 Bft) 100,00 %
03.01.2016 01:05 -3,2 C 93 % 1015,9 hPa 0,0 l/m 19,5 km/h (3 Bft) NO 45 0 min 0,000 mm 0,0 UV-I 0 W/m -4,2 C -13,5 C 29,0 km/h (5 Bft) 100,00 %
03.01.2016 01:10 -3,2 C 93 % 1015,8 hPa 0,0 l/m 22,5 km/h (4 Bft) O-NO 69 0 min 0,000 mm 0,0 UV-I 0 W/m -4,2 C -15,0 C 30,6 km/h (5 Bft) 100,00 %
03.01.2016 01:15 -3,2 C 93 % 1015,9 hPa 0,0 l/m 22,2 km/h (4 Bft) O-NO 60 0 min 0,000 mm 0,0 UV-I 0 W/m -4,2 C -14,8 C 30,6 km/h (5 Bft) 99,08 %
03.01.2016 01:20 -3,2 C 94 % 1015,9 hPa 0,0 l/m 18,0 km/h (3 Bft) O-NO 68 0 min 0,000 mm 0,0 UV-I 0 W/m -4,0 C -12,7 C 27,4 km/h (4 Bft) 100,00 %
03.01.2016 01:25 -3,3 C 94 % 1016,1 hPa 0,0 l/m 17,9 km/h (3 Bft) O-NO 62 0 min 0,000 mm 0,0 UV-I 0 W/m -4,1 C -12,8 C 27,4 km/h (4 Bft) 98,37 %
03.01.2016 01:30 -3,3 C 94 % 1016,1 hPa 0,0 l/m 15,8 km/h (3 Bft) O-NO 60 0 min 0,000 mm 0,0 UV-I 0 W/m -4,1 C -11,5 C 24,1 km/h (4 Bft) 100,00 %
03.01.2016 01:35 -3,3 C 93 % 1016,1 hPa 0,0 l/m 17,3 km/h (3 Bft) O-NO 69 0 min 0,000 mm 0,0 UV-I 0 W/m -4,3 C -12,4 C 27,4 km/h (4 Bft) 100,00 %
03.01.2016 01:40 -3,3 C 94 % 1016,1 hPa 0,0 l/m 12,2 km/h (2 Bft) NO 56 0 min 0,000 mm 0,0 UV-I 0 W/m -4,1 C -9,0 C 17,7 km/h (3 Bft) 100,00 %
03.01.2016 01:45 -3,3 C 93 % 1016,1 hPa 0,0 l/m 14,0 km/h (3 Bft) O-NO 75 0 min 0,000 mm 0,0 UV-I 0 W/m -4,3 C -10,3 C 22,5 km/h (4 Bft) 99,15 %
03.01.2016 01:50 -3,3 C 93 % 1016,1 hPa 0,0 l/m 16,9 km/h (3 Bft) NO 49 0 min 0,000 mm 0,0 UV-I 0 W/m -4,3 C -12,2 C 27,4 km/h (4 Bft) 99,11 %
03.01.2016 01:55 -3,3 C 93 % 1016,0 hPa 0,0 l/m 16,1 km/h (3 Bft) O-SO 103 0 min 0,000 mm 0,0 UV-I 0 W/m -4,3 C -11,7 C 24,1 km/h (4 Bft) 99,21 %
03.01.2016 02:00 -3,3 C 93 % 1015,9 hPa 0,0 l/m 16,2 km/h (3 Bft) O-NO 58 0 min 0,000 mm 0,0 UV-I 0 W/m -4,3 C -11,7 C 25,7 km/h (4 Bft) 100,00 %
03.01.2016 02:05 -3,3 C 93 % 1016,0 hPa 0,0 l/m 15,2 km/h (3 Bft) O 97 0 min 0,000 mm 0,0 UV-I 0 W/m -4,3 C -11,1 C 30,6 km/h (5 Bft) 99,17 %
03.01.2016 02:10 -3,4 C 93 % 1015,9 hPa 0,0 l/m 19,0 km/h (3 Bft) O 87 0 min 0,000 mm 0,0 UV-I 0 W/m -4,4 C -13,5 C 30,6 km/h (5 Bft) 99,15 %
03.01.2016 02:15 -3,4 C 93 % 1015,8 hPa 0,0 l/m 19,6 km/h (3 Bft) O-NO 63 0 min 0,000 mm 0,0 UV-I 0 W/m -4,4 C -13,8 C 27,4 km/h (4 Bft) 97,25 %
03.01.2016 02:20 -3,4 C 93 % 1015,8 hPa 0,0 l/m 21,0 km/h (4 Bft) NO 53 0 min 0,000 mm 0,0 UV-I 0 W/m -4,4 C -14,5 C 33,8 km/h (5 Bft) 99,22 %
03.01.2016 02:25 -3,5 C 93 % 1015,7 hPa 0,0 l/m 18,8 km/h (3 Bft) NO 49 0 min 0,000 mm 0,0 UV-I 0 W/m -4,5 C -13,5 C 25,7 km/h (4 Bft) 97,39 %
03.01.2016 02:30 -3,5 C 93 % 1015,8 hPa 0,0 l/m 20,9 km/h (4 Bft) O-NO 63 0 min 0,000 mm 0,0 UV-I 0 W/m -4,5 C -14,6 C 30,6 km/h (5 Bft) 93,86 %
03.01.2016 02:35 -3,5 C 93 % 1015,9 hPa 0,0 l/m 21,4 km/h (4 Bft) O-NO 59 0 min 0,000 mm 0,0 UV-I 0 W/m -4,5 C -14,9 C 30,6 km/h (5 Bft) 97,52 %
03.01.2016 02:40 -3,6 C 93 % 1015,8 hPa 0,0 l/m 23,8 km/h (4 Bft) O-NO 60 0 min 0,000 mm 0,0 UV-I 0 W/m -4,6 C -16,1 C 32,2 km/h (5 Bft) 98,35 %
03.01.2016 02:45 -3,6 C 93 % 1015,9 hPa 0,0 l/m 20,2 km/h (4 Bft) NO 41 0 min 0,000 mm 0,0 UV-I 0 W/m -4,6 C -14,4 C 29,0 km/h (5 Bft) 97,14 %
03.01.2016 02:50 -3,6 C 93 % 1015,6 hPa 0,0 l/m 18,5 km/h (3 Bft) O-NO 78 0 min 0,000 mm 0,0 UV-I 0 W/m -4,6 C -13,5 C 29,0 km/h (5 Bft) 96,61 %
03.01.2016 02:55 -3,7 C 93 % 1015,5 hPa 0,0 l/m 21,2 km/h (4 Bft) O-NO 68 0 min 0,000 mm 0,0 UV-I 0 W/m -4,7 C -15,0 C 32,2 km/h (5 Bft) 98,37 %
03.01.2016 03:00 -3,7 C 94 % 1015,6 hPa 0,0 l/m 16,8 km/h (3 Bft) NO 52 0 min 0,000 mm 0,0 UV-I 0 W/m -4,5 C -12,6 C 25,7 km/h (4 Bft) 98,35 %
03.01.2016 03:05 -3,7 C 94 % 1015,6 hPa 0,0 l/m 19,1 km/h (3 Bft) NO 55 0 min 0,000 mm 0,0 UV-I 0 W/m -4,5 C -13,9 C 27,4 km/h (4 Bft) 100,00 %
03.01.2016 03:10 -3,7 C 94 % 1015,6 hPa 0,0 l/m 18,4 km/h (3 Bft) O-NO 61 0 min 0,000 mm 0,0 UV-I 0 W/m -4,5 C -13,5 C 30,6 km/h (5 Bft) 99,21 %
03.01.2016 03:15 -3,8 C 94 % 1015,6 hPa 0,0 l/m 19,3 km/h (3 Bft) NO 48 0 min 0,000 mm 0,0 UV-I 0 W/m -4,6 C -14,2 C 29,0 km/h (5 Bft) 99,11 %
03.01.2016 03:20 -3,8 C 94 % 1015,6 hPa 0,0 l/m 17,2 km/h (3 Bft) NO 44 0 min 0,000 mm 0,0 UV-I 0 W/m -4,6 C -13,0 C 25,7 km/h (4 Bft) 99,13 %
03.01.2016 03:25 -3,8 C 94 % 1015,7 hPa 0,0 l/m 17,2 km/h (3 Bft) O-NO 57 0 min 0,000 mm 0,0 UV-I 0 W/m -4,6 C -13,0 C 25,7 km/h (4 Bft) 100,00 %
03.01.2016 03:30 -3,9 C 94 % 1015,7 hPa 0,0 l/m 20,4 km/h (4 Bft) NO 51 0 min 0,000 mm 0,0 UV-I 0 W/m -4,7 C -14,9 C 32,2 km/h (5 Bft) 100,00 %
03.01.2016 03:35 -3,9 C 94 % 1015,7 hPa 0,0 l/m 23,6 km/h (4 Bft) O-NO 77 0 min 0,000 mm 0,0 UV-I 0 W/m -4,7 C -16,4 C 35,4 km/h (5 Bft) 96,75 %
03.01.2016 03:40 -4,0 C 94 % 1015,7 hPa 0,0 l/m 22,4 km/h (4 Bft) O-NO 77 0 min 0,000 mm 0,0 UV-I 0 W/m -4,8 C -16,0 C 32,2 km/h (5 Bft) 100,00 %
03.01.2016 03:45 -4,1 C 94 % 1015,6 hPa 0,0 l/m 23,2 km/h (4 Bft) O-NO 57 0 min 0,000 mm 0,0 UV-I 0 W/m -4,9 C -16,5 C 37,0 km/h (5 Bft) 100,00 %
03.01.2016 03:50 -4,1 C 94 % 1015,5 hPa 0,0 l/m 20,2 km/h (4 Bft) O-NO 64 0 min 0,000 mm 0,0 UV-I 0 W/m -4,9 C -15,0 C 32,2 km/h (5 Bft) 99,10 %
03.01.2016 03:55 -4,1 C 94 % 1015,5 hPa 0,0 l/m 22,1 km/h (4 Bft) NO 55 0 min 0,000 mm 0,0 UV-I 0 W/m -4,9 C -16,0 C 33,8 km/h (5 Bft) 99,17 %
03.01.2016 04:00 -4,1 C 94 % 1015,4 hPa 0,0 l/m 23,5 km/h (4 Bft) O 82 0 min 0,000 mm 0,0 UV-I 0 W/m -4,9 C -16,6 C 37,0 km/h (5 Bft) 99,17 %
03.01.2016 04:05 -4,2 C 94 % 1015,3 hPa 0,0 l/m 25,1 km/h (4 Bft) O 81 0 min 0,000 mm 0,0 UV-I 0 W/m -5,0 C -17,5 C 33,8 km/h (5 Bft) 100,00 %
03.01.2016 04:10 -4,2 C 94 % 1015,4 hPa 0,0 l/m 20,0 km/h (4 Bft) NO 49 0 min 0,000 mm 0,0 UV-I 0 W/m -5,0 C -15,1 C 29,0 km/h (5 Bft) 98,43 %
03.01.2016 04:15 -4,2 C 94 % 1015,6 hPa 0,0 l/m 19,8 km/h (3 Bft) O-NO 62 0 min 0,000 mm 0,0 UV-I 0 W/m -5,0 C -15,0 C 30,6 km/h (5 Bft) 98,17 %
03.01.2016 04:20 -4,2 C 94 % 1015,6 hPa 0,0 l/m 17,5 km/h (3 Bft) NO 49 0 min 0,000 mm 0,0 UV-I 0 W/m -5,0 C -13,7 C 24,1 km/h (4 Bft) 99,17 %
03.01.2016 04:25 -4,2 C 94 % 1015,6 hPa 0,0 l/m 16,5 km/h (3 Bft) NO 55 0 min 0,000 mm 0,0 UV-I 0 W/m -5,0 C -13,0 C 24,1 km/h (4 Bft) 96,67 %
03.01.2016 04:30 -4,2 C 94 % 1015,5 hPa 0,0 l/m 21,4 km/h (4 Bft) O-NO 59 0 min 0,000 mm 0,0 UV-I 0 W/m -5,0 C -15,8 C 32,2 km/h (5 Bft) 95,50 %
03.01.2016 04:35 -4,2 C 94 % 1015,5 hPa 0,0 l/m 19,1 km/h (3 Bft) NO 55 0 min 0,000 mm 0,0 UV-I 0 W/m -5,0 C -14,6 C 30,6 km/h (5 Bft) 98,39 %
03.01.2016 04:40 -4,3 C 94 % 1015,6 hPa 0,0 l/m 19,5 km/h (3 Bft) O-NO 61 0 min 0,000 mm 0,0 UV-I 0 W/m -5,1 C -14,9 C 29,0 km/h (5 Bft) 97,46 %
03.01.2016 04:45 -4,3 C 94 % 1015,6 hPa 0,0 l/m 19,3 km/h (3 Bft) O 81 0 min 0,000 mm 0,0 UV-I 0 W/m -5,1 C -14,8 C 29,0 km/h (5 Bft) 97,37 %
03.01.2016 04:50 -4,3 C 94 % 1015,6 hPa 0,0 l/m 20,9 km/h (4 Bft) O 82 0 min 0,000 mm 0,0 UV-I 0 W/m -5,1 C -15,7 C 30,6 km/h (5 Bft) 97,39 %
03.01.2016 04:55 -4,3 C 94 % 1015,6 hPa 0,0 l/m 17,7 km/h (3 Bft) O-NO 67 0 min 0,000 mm 0,0 UV-I 0 W/m -5,1 C -13,9 C 30,6 km/h (5 Bft) 98,21 %
03.01.2016 05:00 -4,3 C 94 % 1015,6 hPa 0,0 l/m 13,0 km/h (3 Bft) NO 51 0 min 0,000 mm 0,0 UV-I 0 W/m -5,1 C -10,7 C 19,3 km/h (3 Bft) 98,33 %
03.01.2016 05:05 -4,3 C 94 % 1015,7 hPa 0,0 l/m 16,1 km/h (3 Bft) NO 38 0 min 0,000 mm 0,0 UV-I 0 W/m -5,1 C -12,9 C 27,4 km/h (4 Bft) 100,00 %
03.01.2016 05:10 -4,4 C 94 % 1015,7 hPa 0,0 l/m 19,2 km/h (3 Bft) O 80 0 min 0,000 mm 0,0 UV-I 0 W/m -5,2 C -14,9 C 30,6 km/h (5 Bft) 99,10 %
03.01.2016 05:15 -4,4 C 94 % 1015,7 hPa 0,0 l/m 19,3 km/h (3 Bft) O-NO 70 0 min 0,000 mm 0,0 UV-I 0 W/m -5,2 C -14,9 C 27,4 km/h (4 Bft) 100,00 %
03.01.2016 05:20 -4,5 C 94 % 1015,7 hPa 0,0 l/m 15,6 km/h (3 Bft) NO 49 0 min 0,000 mm 0,0 UV-I 0 W/m -5,3 C -12,8 C 22,5 km/h (4 Bft) 99,13 %
03.01.2016 05:25 -4,5 C 94 % 1015,6 hPa 0,0 l/m 15,6 km/h (3 Bft) O-NO 62 0 min 0,000 mm 0,0 UV-I 0 W/m -5,3 C -12,8 C 22,5 km/h (4 Bft) 99,17 %
03.01.2016 05:30 -4,5 C 94 % 1015,5 hPa 0,0 l/m 16,9 km/h (3 Bft) NO 42 0 min 0,000 mm 0,0 UV-I 0 W/m -5,3 C -13,7 C 24,1 km/h (4 Bft) 100,00 %
03.01.2016 05:35 -4,6 C 94 % 1015,3 hPa 0,0 l/m 16,1 km/h (3 Bft) NO 52 0 min 0,000 mm 0,0 UV-I 0 W/m -5,4 C -13,3 C 24,1 km/h (4 Bft) 97,25 %
03.01.2016 05:40 -4,6 C 94 % 1015,2 hPa 0,0 l/m 18,7 km/h (3 Bft) O-NO 63 0 min 0,000 mm 0,0 UV-I 0 W/m -5,4 C -14,9 C 30,6 km/h (5 Bft) 100,00 %
03.01.2016 05:45 -4,7 C 94 % 1015,2 hPa 0,0 l/m 14,7 km/h (3 Bft) O-NO 67 0 min 0,000 mm 0,0 UV-I 0 W/m -5,5 C -12,5 C 25,7 km/h (4 Bft) 99,13 %
03.01.2016 05:50 -4,7 C 95 % 1015,3 hPa 0,0 l/m 14,4 km/h (3 Bft) NO 56 0 min 0,000 mm 0,0 UV-I 0 W/m -5,4 C -12,3 C 20,9 km/h (4 Bft) 98,37 %
03.01.2016 05:55 -4,7 C 95 % 1015,3 hPa 0,0 l/m 13,1 km/h (3 Bft) NO 48 0 min 0,000 mm 0,0 UV-I 0 W/m -5,4 C -11,3 C 19,3 km/h (3 Bft) 100,00 %
03.01.2016 06:00 -4,7 C 95 % 1015,3 hPa 0,0 l/m 15,8 km/h (3 Bft) NO 49 0 min 0,000 mm 0,0 UV-I 0 W/m -5,4 C -13,2 C 22,5 km/h (4 Bft) 99,17 %
03.01.2016 06:05 -4,7 C 95 % 1015,4 hPa 0,0 l/m 15,5 km/h (3 Bft) NO 49 0 min 0,000 mm 0,0 UV-I 0 W/m -5,4 C -13,0 C 22,5 km/h (4 Bft) 100,00 %
03.01.2016 06:10 -4,7 C 95 % 1015,3 hPa 0,0 l/m 13,1 km/h (3 Bft) O-NO 59 0 min 0,000 mm 0,0 UV-I 0 W/m -5,4 C -11,3 C 19,3 km/h (3 Bft) 98,26 %
03.01.2016 06:15 -4,7 C 95 % 1015,4 hPa 0,0 l/m 13,5 km/h (3 Bft) O 79 0 min 0,000 mm 0,0 UV-I 0 W/m -5,4 C -11,6 C 19,3 km/h (3 Bft) 100,00 %
03.01.2016 06:20 -4,8 C 94 % 1015,3 hPa 0,0 l/m 17,1 km/h (3 Bft) O-NO 58 0 min 0,000 mm 0,0 UV-I 0 W/m -5,6 C -14,2 C 24,1 km/h (4 Bft) 99,19 %
03.01.2016 06:25 -4,8 C 94 % 1015,3 hPa 0,0 l/m 17,4 km/h (3 Bft) NO 56 0 min 0,000 mm 0,0 UV-I 0 W/m -5,6 C -14,4 C 25,7 km/h (4 Bft) 99,17 %
03.01.2016 06:30 -4,8 C 95 % 1015,3 hPa 0,0 l/m 17,2 km/h (3 Bft) O-NO 63 0 min 0,000 mm 0,0 UV-I 0 W/m -5,5 C -14,2 C 27,4 km/h (4 Bft) 96,40 %
03.01.2016 06:35 -4,8 C 94 % 1015,3 hPa 0,0 l/m 19,8 km/h (3 Bft) NO 44 0 min 0,000 mm 0,0 UV-I 0 W/m -5,6 C -15,7 C 29,0 km/h (5 Bft) 96,61 %
03.01.2016 06:40 -4,8 C 94 % 1015,3 hPa 0,0 l/m 18,2 km/h (3 Bft) O-NO 72 0 min 0,000 mm 0,0 UV-I 0 W/m -5,6 C -14,8 C 25,7 km/h (4 Bft) 97,52 %
03.01.2016 06:45 -4,8 C 94 % 1015,2 hPa 0,0 l/m 16,8 km/h (3 Bft) O-NO 75 0 min 0,000 mm 0,0 UV-I 0 W/m -5,6 C -14,0 C 22,5 km/h (4 Bft) 96,67 %
03.01.2016 06:50 -4,8 C 95 % 1015,3 hPa 0,0 l/m 14,4 km/h (3 Bft) O-NO 69 0 min 0,000 mm 0,0 UV-I 0 W/m -5,5 C -12,4 C 20,9 km/h (4 Bft) 96,33 %
03.01.2016 06:55 -4,8 C 94 % 1015,3 hPa 0,0 l/m 15,8 km/h (3 Bft) O-NO 69 0 min 0,000 mm 0,0 UV-I 0 W/m -5,6 C -13,3 C 25,7 km/h (4 Bft) 97,46 %
03.01.2016 07:00 -4,9 C 94 % 1015,3 hPa 0,0 l/m 19,2 km/h (3 Bft) O-NO 61 0 min 0,000 mm 0,0 UV-I 0 W/m -5,7 C -15,5 C 29,0 km/h (5 Bft) 97,37 %
03.01.2016 07:05 -4,9 C 94 % 1015,3 hPa 0,0 l/m 19,8 km/h (3 Bft) NO 54 0 min 0,000 mm 0,0 UV-I 0 W/m -5,7 C -15,9 C 32,2 km/h (5 Bft) 98,31 %
03.01.2016 07:10 -4,9 C 94 % 1015,2 hPa 0,0 l/m 19,7 km/h (3 Bft) O-NO 66 0 min 0,000 mm 0,0 UV-I 0 W/m -5,7 C -15,8 C 27,4 km/h (4 Bft) 100,00 %
03.01.2016 07:15 -4,9 C 94 % 1015,3 hPa 0,0 l/m 16,4 km/h (3 Bft) O 82 0 min 0,000 mm 0,0 UV-I 0 W/m -5,7 C -13,9 C 25,7 km/h (4 Bft) 99,15 %
03.01.2016 07:20 -5,0 C 94 % 1015,3 hPa 0,0 l/m 17,7 km/h (3 Bft) O-NO 72 0 min 0,000 mm 0,0 UV-I 0 W/m -5,8 C -14,8 C 25,7 km/h (4 Bft) 100,00 %
03.01.2016 07:25 -5,0 C 94 % 1015,3 hPa 0,0 l/m 20,8 km/h (4 Bft) O-NO 69 0 min 0,000 mm 0,0 UV-I 0 W/m -5,8 C -16,5 C 29,0 km/h (5 Bft) 100,00 %
03.01.2016 07:30 -5,1 C 94 % 1015,2 hPa 0,0 l/m 19,3 km/h (3 Bft) NO 56 0 min 0,000 mm 0,0 UV-I 0 W/m -5,9 C -15,8 C 29,0 km/h (5 Bft) 100,00 %
03.01.2016 07:35 -5,1 C 94 % 1015,2 hPa 0,0 l/m 20,9 km/h (4 Bft) O-NO 64 0 min 0,000 mm 0,0 UV-I 0 W/m -5,9 C -16,7 C 29,0 km/h (5 Bft) 98,39 %
03.01.2016 07:40 -5,1 C 93 % 1015,2 hPa 0,0 l/m 20,7 km/h (4 Bft) NO 56 0 min 0,000 mm 0,0 UV-I 0 W/m -6,1 C -16,6 C 30,6 km/h (5 Bft) 100,00 %
03.01.2016 07:45 -5,1 C 93 % 1015,3 hPa 0,0 l/m 21,2 km/h (4 Bft) O-NO 64 0 min 0,000 mm 0,0 UV-I 0 W/m -6,1 C -16,8 C 30,6 km/h (5 Bft) 98,31 %
03.01.2016 07:50 -5,1 C 94 % 1015,3 hPa 0,0 l/m 18,3 km/h (3 Bft) O-NO 57 0 min 0,000 mm 0,0 UV-I 0 W/m -5,9 C -15,3 C 30,6 km/h (5 Bft) 100,00 %
03.01.2016 07:55 -5,1 C 94 % 1015,2 hPa 0,0 l/m 18,0 km/h (3 Bft) O-NO 64 0 min 0,000 mm 0,0 UV-I 0 W/m -5,9 C -15,1 C 27,4 km/h (4 Bft) 98,31 %
03.01.2016 08:00 -5,1 C 94 % 1015,3 hPa 0,0 l/m 18,9 km/h (3 Bft) NO 45 0 min 0,000 mm 0,0 UV-I 0 W/m -5,9 C -15,6 C 29,0 km/h (5 Bft) 100,00 %
03.01.2016 08:05 -5,1 C 94 % 1015,2 hPa 0,0 l/m 18,2 km/h (3 Bft) O-NO 65 0 min 0,000 mm 0,0 UV-I 0 W/m -5,9 C -15,2 C 25,7 km/h (4 Bft) 100,00 %
03.01.2016 08:10 -5,1 C 94 % 1015,2 hPa 0,0 l/m 17,7 km/h (3 Bft) O-NO 69 0 min 0,000 mm 0,0 UV-I 4 W/m -5,9 C -14,9 C 27,4 km/h (4 Bft) 100,00 %
03.01.2016 08:15 -5,1 C 94 % 1015,3 hPa 0,0 l/m 18,2 km/h (3 Bft) O-NO 69 0 min 0,000 mm 0,0 UV-I 7 W/m -5,9 C -15,2 C 29,0 km/h (5 Bft) 99,11 %
03.01.2016 08:20 -5,1 C 94 % 1015,4 hPa 0,0 l/m 19,3 km/h (3 Bft) NO 53 0 min 0,000 mm 0,0 UV-I 10 W/m -5,9 C -15,8 C 29,0 km/h (5 Bft) 99,19 %
03.01.2016 08:25 -5,2 C 94 % 1015,3 hPa 0,0 l/m 21,0 km/h (4 Bft) O-NO 71 0 min 0,000 mm 0,0 UV-I 13 W/m -6,0 C -16,9 C 32,2 km/h (5 Bft) 99,11 %
03.01.2016 08:30 -5,2 C 94 % 1015,3 hPa 0,0 l/m 22,5 km/h (4 Bft) O-NO 67 0 min 0,000 mm 0,0 UV-I 18 W/m -6,0 C -17,6 C 32,2 km/h (5 Bft) 99,12 %
03.01.2016 08:35 -5,3 C 94 % 1015,3 hPa 0,0 l/m 20,9 km/h (4 Bft) O-NO 67 0 min 0,000 mm 0,0 UV-I 24 W/m -6,1 C -17,0 C 29,0 km/h (5 Bft) 100,00 %
03.01.2016 08:40 -5,3 C 94 % 1015,3 hPa 0,0 l/m 22,4 km/h (4 Bft) NO 55 0 min 0,000 mm 0,0 UV-I 33 W/m -6,1 C -17,7 C 29,0 km/h (5 Bft) 92,50 %
03.01.2016 08:45 -5,3 C 94 % 1015,3 hPa 0,0 l/m 21,3 km/h (4 Bft) O-NO 57 0 min 0,000 mm 0,0 UV-I 36 W/m -6,1 C -17,2 C 29,0 km/h (5 Bft) 95,93 %
03.01.2016 08:50 -5,3 C 94 % 1015,3 hPa 0,0 l/m 19,5 km/h (3 Bft) NO 51 0 min 0,000 mm 0,0 UV-I 37 W/m -6,1 C -16,2 C 29,0 km/h (5 Bft) 96,43 %
03.01.2016 08:55 -5,3 C 94 % 1015,3 hPa 0,0 l/m 21,2 km/h (4 Bft) O-NO 61 0 min 0,000 mm 0,0 UV-I 35 W/m -6,1 C -17,1 C 29,0 km/h (5 Bft) 97,32 %
03.01.2016 09:00 -5,3 C 94 % 1015,4 hPa 0,0 l/m 20,4 km/h (4 Bft) O-NO 62 0 min 0,000 mm 0,0 UV-I 35 W/m -6,1 C -16,7 C 29,0 km/h (5 Bft) 96,12 %
03.01.2016 09:05 -5,3 C 94 % 1015,4 hPa 0,0 l/m 16,8 km/h (3 Bft) N-NO 33 0 min 0,000 mm 0,0 UV-I 36 W/m -6,1 C -14,6 C 25,7 km/h (4 Bft) 96,33 %
03.01.2016 09:10 -5,3 C 94 % 1015,4 hPa 0,0 l/m 18,2 km/h (3 Bft) NO 45 0 min 0,000 mm 0,0 UV-I 40 W/m -6,1 C -15,5 C 27,4 km/h (4 Bft) 97,44 %
03.01.2016 09:15 -5,3 C 94 % 1015,4 hPa 0,0 l/m 16,7 km/h (3 Bft) O-NO 67 0 min 0,000 mm 0,0 UV-I 46 W/m -6,1 C -14,5 C 27,4 km/h (4 Bft) 100,00 %
03.01.2016 09:25 -5,3 C 93 % 1015,4 hPa 0,0 l/m 17,4 km/h (3 Bft) NO 46 0 min 0,000 mm 0,0 UV-I 80 W/m -6,2 C -15,0 C 25,7 km/h (4 Bft) 99,66 %
03.01.2016 09:30 -5,2 C 93 % 1015,4 hPa 0,0 l/m 21,8 km/h (4 Bft) O-NO 67 0 min 0,000 mm 0,0 UV-I 84 W/m -6,1 C -17,3 C 29,0 km/h (5 Bft) 97,94 %
03.01.2016 09:35 -5,2 C 93 % 1015,4 hPa 0,0 l/m 17,4 km/h (3 Bft) O-NO 74 0 min 0,000 mm 0,0 UV-I 84 W/m -6,1 C -14,9 C 27,4 km/h (4 Bft) 98,45 %
03.01.2016 09:40 -5,2 C 93 % 1015,3 hPa 0,0 l/m 20,4 km/h (4 Bft) O-NO 59 0 min 0,000 mm 0,0 UV-I 90 W/m -6,1 C -16,6 C 29,0 km/h (5 Bft) 98,31 %
03.01.2016 09:45 -5,2 C 93 % 1015,3 hPa 0,0 l/m 17,2 km/h (3 Bft) O-NO 57 0 min 0,000 mm 0,0 UV-I 99 W/m -6,1 C -14,7 C 25,7 km/h (4 Bft) 99,17 %
03.01.2016 09:50 -5,1 C 93 % 1015,2 hPa 0,0 l/m 15,7 km/h (3 Bft) O-NO 58 0 min 0,000 mm 0,0 UV-I 107 W/m -6,1 C -13,6 C 25,7 km/h (4 Bft) 100,00 %
03.01.2016 09:55 -5,1 C 92 % 1015,2 hPa 0,0 l/m 21,2 km/h (4 Bft) O 84 0 min 0,000 mm 0,0 UV-I 114 W/m -6,2 C -16,8 C 30,6 km/h (5 Bft) 98,06 %
03.01.2016 10:00 -5,1 C 93 % 1015,1 hPa 0,0 l/m 18,8 km/h (3 Bft) O-NO 59 0 min 0,025 mm 0,0 UV-I 117 W/m -6,1 C -15,6 C 29,0 km/h (5 Bft) 97,25 %
03.01.2016 10:05 -5,1 C 92 % 1015,1 hPa 0,0 l/m 19,5 km/h (3 Bft) O 84 0 min 0,000 mm 0,0 UV-I 118 W/m -6,2 C -15,9 C 25,7 km/h (4 Bft) 100,00 %
03.01.2016 10:10 -5,0 C 93 % 1015,1 hPa 0,0 l/m 16,7 km/h (3 Bft) O 80 0 min 0,000 mm 0,0 UV-I 119 W/m -6,0 C -14,2 C 24,1 km/h (4 Bft) 99,13 %
03.01.2016 10:15 -5,1 C 92 % 1015,2 hPa 0,0 l/m 18,4 km/h (3 Bft) O-NO 69 0 min 0,000 mm 0,0 UV-I 119 W/m -6,2 C -15,3 C 24,1 km/h (4 Bft) 100,00 %
03.01.2016 10:20 -5,0 C 93 % 1015,2 hPa 0,0 l/m 16,2 km/h (3 Bft) NO 38 0 min 0,000 mm 0,0 UV-I 114 W/m -6,0 C -13,8 C 25,7 km/h (4 Bft) 100,00 %
03.01.2016 10:25 -5,0 C 92 % 1015,1 hPa 0,0 l/m 17,8 km/h (3 Bft) N-NO 17 0 min 0,000 mm 0,0 UV-I 114 W/m -6,1 C -14,8 C 25,7 km/h (4 Bft) 98,21 %
03.01.2016 10:30 -5,1 C 92 % 1015,0 hPa 0,0 l/m 20,6 km/h (4 Bft) O-NO 61 0 min 0,000 mm 0,0 UV-I 140 W/m -6,2 C -16,5 C 30,6 km/h (5 Bft) 99,19 %
03.01.2016 10:35 -5,1 C 92 % 1015,0 hPa 0,0 l/m 18,7 km/h (3 Bft) NO 42 5 min 0,000 mm 0,0 UV-I 163 W/m -6,2 C -15,5 C 25,7 km/h (4 Bft) 97,32 %
03.01.2016 10:40 -4,9 C 92 % 1015,0 hPa 0,0 l/m 16,4 km/h (3 Bft) O-NO 77 5 min 0,000 mm 0,0 UV-I 173 W/m -6,0 C -13,9 C 24,1 km/h (4 Bft) 95,54 %
03.01.2016 10:45 -4,9 C 92 % 1015,0 hPa 0,0 l/m 19,2 km/h (3 Bft) O 80 5 min 0,000 mm 0,0 UV-I 174 W/m -6,0 C -15,5 C 27,4 km/h (4 Bft) 97,62 %
03.01.2016 10:50 -4,9 C 91 % 1015,0 hPa 0,0 l/m 18,9 km/h (3 Bft) O 79 5 min 0,000 mm 0,0 UV-I 171 W/m -6,1 C -15,4 C 27,4 km/h (4 Bft) 96,61 %
03.01.2016 10:55 -4,9 C 91 % 1015,0 hPa 0,0 l/m 18,9 km/h (3 Bft) O-NO 61 0 min 0,000 mm 0,0 UV-I 158 W/m -6,1 C -15,4 C 27,4 km/h (4 Bft) 97,22 %
03.01.2016 11:00 -5,0 C 92 % 1014,9 hPa 0,0 l/m 20,4 km/h (4 Bft) O-NO 59 0 min 0,051 mm 0,0 UV-I 139 W/m -6,1 C -16,3 C 27,4 km/h (4 Bft) 95,97 %
03.01.2016 11:05 -4,9 C 92 % 1014,9 hPa 0,0 l/m 18,2 km/h (3 Bft) O-NO 57 0 min 0,000 mm 0,0 UV-I 136 W/m -6,0 C -15,0 C 30,6 km/h (5 Bft) 95,28 %
03.01.2016 11:10 -5,0 C 91 % 1014,7 hPa 0,0 l/m 23,0 km/h (4 Bft) O 81 0 min 0,000 mm 0,0 UV-I 148 W/m -6,2 C -17,6 C 32,2 km/h (5 Bft) 99,21 %
03.01.2016 11:15 -5,0 C 91 % 1014,7 hPa 0,0 l/m 21,1 km/h (4 Bft) O-NO 65 0 min 0,000 mm 0,0 UV-I 163 W/m -6,2 C -16,7 C 30,6 km/h (5 Bft) 99,17 %
03.01.2016 11:20 -5,0 C 91 % 1014,7 hPa 0,0 l/m 21,9 km/h (4 Bft) O-NO 63 0 min 0,000 mm 0,0 UV-I 172 W/m -6,2 C -17,1 C 32,2 km/h (5 Bft) 99,08 %
03.01.2016 11:25 -5,0 C 91 % 1014,6 hPa 0,0 l/m 15,8 km/h (3 Bft) N-NO 31 0 min 0,000 mm 0,0 UV-I 177 W/m -6,2 C -13,6 C 20,9 km/h (4 Bft) 100,00 %
03.01.2016 11:35 -4,9 C 91 % 1014,4 hPa 0,0 l/m 20,6 km/h (4 Bft) O-NO 57 0 min 0,000 mm 0,0 UV-I 164 W/m -6,1 C -16,3 C 24,1 km/h (4 Bft) 98,52 %
03.01.2016 11:40 -5,0 C 91 % 1014,3 hPa 0,0 l/m 19,8 km/h (3 Bft) NO 53 0 min 0,000 mm 0,0 UV-I 167 W/m -6,2 C -16,0 C 27,4 km/h (4 Bft) 100,00 %
03.01.2016 11:45 -4,9 C 91 % 1014,3 hPa 0,0 l/m 19,7 km/h (3 Bft) O-NO 73 0 min 0,000 mm 0,0 UV-I 170 W/m -6,1 C -15,8 C 30,6 km/h (5 Bft) 100,00 %
03.01.2016 11:50 -4,9 C 92 % 1014,1 hPa 0,0 l/m 13,0 km/h (3 Bft) O-NO 78 0 min 0,000 mm 0,0 UV-I 173 W/m -6,0 C -11,4 C 20,9 km/h (4 Bft) 99,12 %
03.01.2016 11:55 -4,9 C 91 % 1014,1 hPa 0,0 l/m 19,3 km/h (3 Bft) NO 50 0 min 0,000 mm 0,0 UV-I 182 W/m -6,1 C -15,6 C 25,7 km/h (4 Bft) 100,00 %
03.01.2016 12:00 -4,9 C 91 % 1014,0 hPa 0,0 l/m 17,4 km/h (3 Bft) O-NO 76 5 min 0,051 mm 0,0 UV-I 188 W/m -6,1 C -14,5 C 27,4 km/h (4 Bft) 99,21 %
03.01.2016 12:05 -4,8 C 92 % 1014,0 hPa 0,0 l/m 13,5 km/h (3 Bft) NO 54 0 min 0,000 mm 0,0 UV-I 180 W/m -5,9 C -11,7 C 22,5 km/h (4 Bft) 100,00 %
03.01.2016 12:10 -4,9 C 91 % 1013,8 hPa 0,0 l/m 17,9 km/h (3 Bft) N-NO 31 0 min 0,000 mm 0,0 UV-I 178 W/m -6,1 C -14,8 C 25,7 km/h (4 Bft) 98,43 %
03.01.2016 12:15 -4,9 C 91 % 1013,8 hPa 0,0 l/m 15,8 km/h (3 Bft) NO 54 0 min 0,000 mm 0,0 UV-I 177 W/m -6,1 C -13,5 C 24,1 km/h (4 Bft) 99,12 %
03.01.2016 12:20 -4,9 C 92 % 1013,8 hPa 0,0 l/m 15,3 km/h (3 Bft) O-NO 57 0 min 0,000 mm 0,0 UV-I 168 W/m -6,0 C -13,1 C 24,1 km/h (4 Bft) 100,00 %
03.01.2016 12:25 -4,9 C 91 % 1013,7 hPa 0,0 l/m 15,3 km/h (3 Bft) O-NO 66 0 min 0,000 mm 0,0 UV-I 161 W/m -6,1 C -13,1 C 20,9 km/h (4 Bft) 98,35 %
03.01.2016 12:30 -4,8 C 91 % 1013,6 hPa 0,0 l/m 17,2 km/h (3 Bft) NO 56 0 min 0,000 mm 0,0 UV-I 155 W/m -6,0 C -14,2 C 25,7 km/h (4 Bft) 97,30 %
03.01.2016 12:35 -4,8 C 91 % 1013,6 hPa 0,0 l/m 17,4 km/h (3 Bft) O 82 0 min 0,000 mm 0,0 UV-I 151 W/m -6,0 C -14,4 C 25,7 km/h (4 Bft) 95,87 %
03.01.2016 12:40 -4,8 C 91 % 1013,5 hPa 0,0 l/m 14,9 km/h (3 Bft) O-NO 59 0 min 0,000 mm 0,0 UV-I 148 W/m -6,0 C -12,7 C 22,5 km/h (4 Bft) 96,67 %
03.01.2016 12:45 -4,8 C 91 % 1013,4 hPa 0,0 l/m 16,5 km/h (3 Bft) O-NO 61 0 min 0,000 mm 0,0 UV-I 144 W/m -6,0 C -13,8 C 22,5 km/h (4 Bft) 96,52 %
03.01.2016 12:50 -4,8 C 91 % 1013,4 hPa 0,0 l/m 13,6 km/h (3 Bft) O 87 0 min 0,000 mm 0,0 UV-I 139 W/m -6,0 C -11,8 C 20,9 km/h (4 Bft) 98,31 %
03.01.2016 12:55 -4,8 C 91 % 1013,4 hPa 0,0 l/m 13,9 km/h (3 Bft) NO 47 0 min 0,000 mm 0,0 UV-I 134 W/m -6,0 C -12,0 C 20,9 km/h (4 Bft) 96,52 %
03.01.2016 13:00 -4,8 C 91 % 1013,3 hPa 0,0 l/m 14,6 km/h (3 Bft) NO 51 0 min 0,051 mm 0,0 UV-I 126 W/m -6,0 C -12,5 C 19,3 km/h (3 Bft) 97,32 %
03.01.2016 13:05 -4,8 C 91 % 1013,2 hPa 0,0 l/m 14,8 km/h (3 Bft) NO 53 0 min 0,000 mm 0,0 UV-I 110 W/m -6,0 C -12,7 C 22,5 km/h (4 Bft) 98,35 %
03.01.2016 13:10 -4,8 C 91 % 1013,1 hPa 0,0 l/m 17,4 km/h (3 Bft) NO 43 0 min 0,000 mm 0,0 UV-I 95 W/m -6,0 C -14,4 C 22,5 km/h (4 Bft) 100,00 %
03.01.2016 13:15 -4,9 C 91 % 1013,0 hPa 0,0 l/m 16,8 km/h (3 Bft) O-NO 74 0 min 0,000 mm 0,0 UV-I 98 W/m -6,1 C -14,1 C 22,5 km/h (4 Bft) 99,17 %
03.01.2016 13:20 -4,9 C 91 % 1013,0 hPa 0,0 l/m 15,5 km/h (3 Bft) O 84 0 min 0,000 mm 0,0 UV-I 98 W/m -6,1 C -13,3 C 22,5 km/h (4 Bft) 100,00 %
03.01.2016 13:25 -4,8 C 91 % 1013,0 hPa 0,0 l/m 14,7 km/h (3 Bft) O 84 0 min 0,000 mm 0,0 UV-I 100 W/m -6,0 C -12,6 C 20,9 km/h (4 Bft) 99,10 %
03.01.2016 13:30 -4,8 C 91 % 1013,0 hPa 0,0 l/m 12,6 km/h (3 Bft) O-NO 57 0 min 0,000 mm 0,0 UV-I 89 W/m -6,0 C -11,0 C 17,7 km/h (3 Bft) 100,00 %
03.01.2016 13:35 -4,8 C 91 % 1013,0 hPa 0,0 l/m 15,3 km/h (3 Bft) O-NO 61 0 min 0,000 mm 0,0 UV-I 86 W/m -6,0 C -13,0 C 22,5 km/h (4 Bft) 100,00 %
03.01.2016 13:40 -4,8 C 91 % 1012,8 hPa 0,0 l/m 13,0 km/h (3 Bft) O 88 0 min 0,000 mm 0,0 UV-I 96 W/m -6,0 C -11,3 C 19,3 km/h (3 Bft) 100,00 %
03.01.2016 13:45 -4,8 C 91 % 1012,7 hPa 0,0 l/m 13,7 km/h (3 Bft) O-NO 65 0 min 0,000 mm 0,0 UV-I 106 W/m -6,0 C -11,9 C 22,5 km/h (4 Bft) 99,26 %
03.01.2016 13:50 -4,8 C 91 % 1012,6 hPa 0,0 l/m 16,0 km/h (3 Bft) O 80 0 min 0,000 mm 0,0 UV-I 105 W/m -6,0 C -13,5 C 24,1 km/h (4 Bft) 100,00 %
03.01.2016 13:55 -4,8 C 91 % 1012,6 hPa 0,0 l/m 15,7 km/h (3 Bft) NO 45 0 min 0,000 mm 0,0 UV-I 100 W/m -6,0 C -13,3 C 24,1 km/h (4 Bft) 99,06 %
03.01.2016 14:00 -4,8 C 91 % 1012,6 hPa 0,0 l/m 15,9 km/h (3 Bft) O 82 0 min 0,025 mm 0,0 UV-I 97 W/m -6,0 C -13,4 C 22,5 km/h (4 Bft) 99,15 %
03.01.2016 14:05 -4,8 C 90 % 1012,5 hPa 0,0 l/m 16,9 km/h (3 Bft) O-NO 73 0 min 0,000 mm 0,0 UV-I 100 W/m -6,2 C -14,0 C 22,5 km/h (4 Bft) 99,19 %
03.01.2016 14:10 -4,8 C 91 % 1012,5 hPa 0,0 l/m 16,6 km/h (3 Bft) O-NO 74 0 min 0,000 mm 0,0 UV-I 103 W/m -6,0 C -13,9 C 24,1 km/h (4 Bft) 99,15 %
03.01.2016 14:15 -4,9 C 91 % 1012,5 hPa 0,0 l/m 15,5 km/h (3 Bft) NO 51 0 min 0,000 mm 0,0 UV-I 82 W/m -6,1 C -13,3 C 24,1 km/h (4 Bft) 100,00 %
03.01.2016 14:20 -4,9 C 91 % 1012,5 hPa 0,0 l/m 16,6 km/h (3 Bft) O-NO 71 0 min 0,000 mm 0,0 UV-I 81 W/m -6,1 C -14,0 C 24,1 km/h (4 Bft) 98,37 %
03.01.2016 14:25 -4,9 C 91 % 1012,5 hPa 0,0 l/m 16,6 km/h (3 Bft) O-NO 66 0 min 0,000 mm 0,0 UV-I 78 W/m -6,1 C -14,0 C 24,1 km/h (4 Bft) 99,13 %
03.01.2016 14:30 -5,0 C 91 % 1012,5 hPa 0,0 l/m 15,7 km/h (3 Bft) O-NO 68 0 min 0,000 mm 0,0 UV-I 69 W/m -6,2 C -13,5 C 22,5 km/h (4 Bft) 96,75 %
03.01.2016 14:35 -4,9 C 91 % 1012,4 hPa 0,0 l/m 15,1 km/h (3 Bft) O-NO 57 0 min 0,000 mm 0,0 UV-I 66 W/m -6,1 C -13,0 C 22,5 km/h (4 Bft) 97,25 %
03.01.2016 14:40 -4,9 C 91 % 1012,4 hPa 0,0 l/m 13,7 km/h (3 Bft) NO 56 0 min 0,000 mm 0,0 UV-I 70 W/m -6,1 C -12,0 C 20,9 km/h (4 Bft) 97,56 %
03.01.2016 14:45 -4,9 C 91 % 1012,4 hPa 0,0 l/m 13,6 km/h (3 Bft) O-NO 65 0 min 0,000 mm 0,0 UV-I 70 W/m -6,1 C -11,9 C 20,9 km/h (4 Bft) 97,32 %
03.01.2016 14:50 -4,9 C 91 % 1012,4 hPa 0,0 l/m 13,4 km/h (3 Bft) O-NO 62 0 min 0,000 mm 0,0 UV-I 62 W/m -6,1 C -11,8 C 20,9 km/h (4 Bft) 98,35 %
03.01.2016 14:55 -5,0 C 91 % 1012,4 hPa 0,0 l/m 15,2 km/h (3 Bft) O-NO 66 0 min 0,000 mm 0,0 UV-I 49 W/m -6,2 C -13,2 C 20,9 km/h (4 Bft) 96,58 %
03.01.2016 15:00 -5,0 C 91 % 1012,3 hPa 0,0 l/m 14,0 km/h (3 Bft) NO 51 0 min 0,026 mm 0,0 UV-I 43 W/m -6,2 C -12,3 C 20,9 km/h (4 Bft) 97,39 %
03.01.2016 15:05 -5,1 C 91 % 1012,3 hPa 0,0 l/m 16,4 km/h (3 Bft) O-NO 60 0 min 0,000 mm 0,0 UV-I 43 W/m -6,3 C -14,1 C 24,1 km/h (4 Bft) 99,15 %
03.01.2016 15:10 -5,1 C 91 % 1012,3 hPa 0,0 l/m 15,4 km/h (3 Bft) O-NO 60 0 min 0,000 mm 0,0 UV-I 41 W/m -6,3 C -13,4 C 22,5 km/h (4 Bft) 98,15 %
03.01.2016 15:15 -5,1 C 92 % 1012,2 hPa 0,0 l/m 12,4 km/h (3 Bft) O 83 0 min 0,000 mm 0,0 UV-I 42 W/m -6,2 C -11,2 C 20,9 km/h (4 Bft) 100,00 %
03.01.2016 15:20 -5,1 C 92 % 1012,2 hPa 0,0 l/m 12,6 km/h (3 Bft) NO 56 0 min 0,000 mm 0,0 UV-I 35 W/m -6,2 C -11,4 C 20,9 km/h (4 Bft) 100,00 %
03.01.2016 15:25 -5,1 C 91 % 1012,2 hPa 0,0 l/m 13,0 km/h (3 Bft) NO 46 0 min 0,000 mm 0,0 UV-I 28 W/m -6,3 C -11,7 C 17,7 km/h (3 Bft) 98,33 %
03.01.2016 15:30 -5,1 C 92 % 1012,2 hPa 0,0 l/m 12,7 km/h (3 Bft) O-NO 69 0 min 0,000 mm 0,0 UV-I 23 W/m -6,2 C -11,4 C 17,7 km/h (3 Bft) 100,00 %
03.01.2016 15:35 -5,1 C 92 % 1012,2 hPa 0,0 l/m 13,4 km/h (3 Bft) NO 55 0 min 0,000 mm 0,0 UV-I 19 W/m -6,2 C -12,0 C 19,3 km/h (3 Bft) 97,00 %
03.01.2016 15:40 -5,1 C 92 % 1012,0 hPa 0,0 l/m 14,0 km/h (3 Bft) NO 38 0 min 0,000 mm 0,0 UV-I 15 W/m -6,2 C -12,4 C 19,3 km/h (3 Bft) 98,48 %
03.01.2016 15:45 -5,1 C 92 % 1011,9 hPa 0,0 l/m 14,7 km/h (3 Bft) O-NO 78 0 min 0,000 mm 0,0 UV-I 13 W/m -6,2 C -12,9 C 22,5 km/h (4 Bft) 98,35 %
03.01.2016 15:50 -5,1 C 92 % 1011,8 hPa 0,0 l/m 15,7 km/h (3 Bft) O 92 0 min 0,000 mm 0,0 UV-I 12 W/m -6,2 C -13,6 C 25,7 km/h (4 Bft) 99,07 %
03.01.2016 15:55 -5,2 C 91 % 1011,7 hPa 0,0 l/m 17,3 km/h (3 Bft) O-NO 70 0 min 0,000 mm 0,0 UV-I 11 W/m -6,4 C -14,8 C 24,1 km/h (4 Bft) 100,00 %
03.01.2016 16:00 -5,2 C 92 % 1011,7 hPa 0,0 l/m 14,3 km/h (3 Bft) O-NO 71 0 min 0,025 mm 0,0 UV-I 9 W/m -6,3 C -12,8 C 22,5 km/h (4 Bft) 100,00 %
03.01.2016 16:05 -5,1 C 92 % 1011,7 hPa 0,0 l/m 12,8 km/h (3 Bft) O-NO 58 0 min 0,000 mm 0,0 UV-I 9 W/m -6,2 C -11,5 C 22,5 km/h (4 Bft) 99,15 %
03.01.2016 16:10 -5,2 C 91 % 1011,6 hPa 0,0 l/m 15,6 km/h (3 Bft) O-NO 78 0 min 0,000 mm 0,0 UV-I 6 W/m -6,4 C -13,7 C 22,5 km/h (4 Bft) 100,00 %
03.01.2016 16:15 -5,2 C 91 % 1011,6 hPa 0,0 l/m 15,2 km/h (3 Bft) O 84 0 min 0,000 mm 0,0 UV-I 5 W/m -6,4 C -13,4 C 22,5 km/h (4 Bft) 97,37 %
03.01.2016 16:20 -5,2 C 91 % 1011,7 hPa 0,0 l/m 11,3 km/h (2 Bft) O-NO 69 0 min 0,000 mm 0,0 UV-I 2 W/m -6,4 C -10,4 C 20,9 km/h (4 Bft) 100,00 %
03.01.2016 16:25 -5,2 C 92 % 1011,6 hPa 0,0 l/m 11,4 km/h (2 Bft) O-NO 61 0 min 0,000 mm 0,0 UV-I 0 W/m -6,3 C -10,5 C 17,7 km/h (3 Bft) 98,35 %
03.01.2016 16:30 -5,2 C 92 % 1011,6 hPa 0,0 l/m 12,6 km/h (3 Bft) NO 52 0 min 0,000 mm 0,0 UV-I 0 W/m -6,3 C -11,5 C 20,9 km/h (4 Bft) 100,00 %
03.01.2016 16:35 -5,2 C 91 % 1011,6 hPa 0,0 l/m 13,9 km/h (3 Bft) O-NO 69 0 min 0,000 mm 0,0 UV-I 0 W/m -6,4 C -12,5 C 22,5 km/h (4 Bft) 96,61 %
03.01.2016 16:40 -5,2 C 91 % 1011,5 hPa 0,0 l/m 14,6 km/h (3 Bft) N-NO 32 0 min 0,000 mm 0,0 UV-I 0 W/m -6,4 C -13,0 C 20,9 km/h (4 Bft) 97,56 %
03.01.2016 16:50 -5,2 C 92 % 1011,2 hPa 0,0 l/m 16,3 km/h (3 Bft) NO 52 0 min 0,000 mm 0,0 UV-I 0 W/m -6,3 C -14,2 C 22,5 km/h (4 Bft) 96,73 %
03.01.2016 16:55 -5,2 C 92 % 1011,3 hPa 0,0 l/m 15,4 km/h (3 Bft) O-NO 71 0 min 0,000 mm 0,0 UV-I 0 W/m -6,3 C -13,6 C 22,5 km/h (4 Bft) 95,50 %
03.01.2016 17:00 -5,2 C 91 % 1011,3 hPa 0,0 l/m 15,5 km/h (3 Bft) NO 48 0 min 0,000 mm 0,0 UV-I 0 W/m -6,4 C -13,6 C 22,5 km/h (4 Bft) 97,58 %
03.01.2016 17:05 -5,3 C 91 % 1011,2 hPa 0,0 l/m 15,5 km/h (3 Bft) O-NO 58 0 min 0,000 mm 0,0 UV-I 0 W/m -6,5 C -13,7 C 25,7 km/h (4 Bft) 98,11 %
03.01.2016 17:10 -5,3 C 91 % 1011,2 hPa 0,0 l/m 14,2 km/h (3 Bft) NO 52 0 min 0,000 mm 0,0 UV-I 0 W/m -6,5 C -12,8 C 25,7 km/h (4 Bft) 99,08 %
03.01.2016 17:15 -5,3 C 91 % 1011,2 hPa 0,0 l/m 14,1 km/h (3 Bft) NO 42 0 min 0,000 mm 0,0 UV-I 0 W/m -6,5 C -12,8 C 19,3 km/h (3 Bft) 98,55 %
03.01.2016 17:20 -5,3 C 91 % 1011,3 hPa 0,0 l/m 13,5 km/h (3 Bft) NO 55 0 min 0,000 mm 0,0 UV-I 0 W/m -6,5 C -12,3 C 19,3 km/h (3 Bft) 100,00 %
03.01.2016 17:25 -5,3 C 91 % 1011,1 hPa 0,0 l/m 15,3 km/h (3 Bft) O-NO 63 0 min 0,000 mm 0,0 UV-I 0 W/m -6,5 C -13,6 C 22,5 km/h (4 Bft) 99,19 %
03.01.2016 17:30 -5,4 C 91 % 1010,8 hPa 0,0 l/m 19,6 km/h (3 Bft) NO 51 0 min 0,000 mm 0,0 UV-I 0 W/m -6,6 C -16,4 C 27,4 km/h (4 Bft) 99,11 %
03.01.2016 17:35 -5,4 C 91 % 1011,0 hPa 0,0 l/m 17,6 km/h (3 Bft) O-NO 65 0 min 0,000 mm 0,0 UV-I 0 W/m -6,6 C -15,2 C 29,0 km/h (5 Bft) 100,00 %
03.01.2016 17:40 -5,4 C 91 % 1010,9 hPa 0,0 l/m 14,1 km/h (3 Bft) NO 45 0 min 0,000 mm 0,0 UV-I 0 W/m -6,6 C -12,9 C 22,5 km/h (4 Bft) 97,67 %
03.01.2016 17:45 -5,5 C 91 % 1010,7 hPa 0,0 l/m 18,7 km/h (3 Bft) O-NO 71 0 min 0,000 mm 0,0 UV-I 0 W/m -6,7 C -16,0 C 27,4 km/h (4 Bft) 100,00 %
03.01.2016 17:50 -5,5 C 91 % 1010,8 hPa 0,0 l/m 19,6 km/h (3 Bft) NO 51 0 min 0,000 mm 0,0 UV-I 0 W/m -6,7 C -16,5 C 29,0 km/h (5 Bft) 99,17 %
03.01.2016 17:55 -5,6 C 91 % 1010,6 hPa 0,0 l/m 15,7 km/h (3 Bft) O-NO 57 0 min 0,000 mm 0,0 UV-I 0 W/m -6,8 C -14,3 C 22,5 km/h (4 Bft) 100,00 %
03.01.2016 18:00 -5,5 C 91 % 1010,3 hPa 0,0 l/m 17,9 km/h (3 Bft) O-NO 59 0 min 0,000 mm 0,0 UV-I 0 W/m -6,7 C -15,5 C 24,1 km/h (4 Bft) 98,06 %
03.01.2016 18:05 -5,5 C 91 % 1010,4 hPa 0,0 l/m 18,8 km/h (3 Bft) O-NO 63 0 min 0,000 mm 0,0 UV-I 0 W/m -6,7 C -16,1 C 29,0 km/h (5 Bft) 99,19 %
03.01.2016 18:10 -5,6 C 91 % 1010,2 hPa 0,0 l/m 19,8 km/h (3 Bft) NO 56 0 min 0,000 mm 0,0 UV-I 0 W/m -6,8 C -16,8 C 29,0 km/h (5 Bft) 98,21 %
03.01.2016 18:15 -5,6 C 91 % 1010,1 hPa 0,0 l/m 22,4 km/h (4 Bft) NO 47 0 min 0,000 mm 0,0 UV-I 0 W/m -6,8 C -18,1 C 32,2 km/h (5 Bft) 99,21 %
03.01.2016 18:20 -5,7 C 91 % 1010,1 hPa 0,0 l/m 21,2 km/h (4 Bft) NO 51 0 min 0,000 mm 0,0 UV-I 0 W/m -6,9 C -17,6 C 30,6 km/h (5 Bft) 100,00 %
03.01.2016 18:25 -5,7 C 91 % 1010,0 hPa 0,0 l/m 21,7 km/h (4 Bft) NO 55 0 min 0,000 mm 0,0 UV-I 0 W/m -6,9 C -17,9 C 29,0 km/h (5 Bft) 98,41 %
03.01.2016 18:30 -5,7 C 91 % 1010,2 hPa 0,0 l/m 18,7 km/h (3 Bft) NO 54 0 min 0,000 mm 0,0 UV-I 0 W/m -6,9 C -16,3 C 29,0 km/h (5 Bft) 99,06 %
03.01.2016 18:35 -5,7 C 91 % 1010,0 hPa 0,0 l/m 18,2 km/h (3 Bft) NO 55 0 min 0,000 mm 0,0 UV-I 0 W/m -6,9 C -16,0 C 29,0 km/h (5 Bft) 96,85 %
03.01.2016 18:40 -5,7 C 91 % 1009,9 hPa 0,0 l/m 20,2 km/h (4 Bft) O 84 0 min 0,000 mm 0,0 UV-I 0 W/m -6,9 C -17,1 C 27,4 km/h (4 Bft) 96,23 %
03.01.2016 18:45 -5,7 C 91 % 1009,8 hPa 0,0 l/m 18,3 km/h (3 Bft) NO 51 0 min 0,000 mm 0,0 UV-I 0 W/m -6,9 C -16,0 C 24,1 km/h (4 Bft) 96,09 %
03.01.2016 18:50 -5,7 C 91 % 1009,7 hPa 0,0 l/m 18,1 km/h (3 Bft) O-NO 61 0 min 0,000 mm 0,0 UV-I 0 W/m -6,9 C -15,9 C 25,7 km/h (4 Bft) 97,44 %
03.01.2016 18:55 -5,7 C 91 % 1009,5 hPa 0,0 l/m 16,8 km/h (3 Bft) O-NO 73 0 min 0,000 mm 0,0 UV-I 0 W/m -6,9 C -15,1 C 24,1 km/h (4 Bft) 97,30 %
03.01.2016 19:00 -5,7 C 91 % 1009,4 hPa 0,0 l/m 18,5 km/h (3 Bft) O-NO 61 0 min 0,000 mm 0,0 UV-I 0 W/m -6,9 C -16,1 C 25,7 km/h (4 Bft) 97,58 %
03.01.2016 19:05 -5,8 C 91 % 1009,2 hPa 0,0 l/m 20,8 km/h (4 Bft) NO 55 0 min 0,000 mm 0,0 UV-I 0 W/m -7,0 C -17,6 C 30,6 km/h (5 Bft) 96,23 %
03.01.2016 19:10 -5,8 C 91 % 1009,3 hPa 0,0 l/m 18,1 km/h (3 Bft) NO 45 0 min 0,000 mm 0,0 UV-I 0 W/m -7,0 C -16,0 C 27,4 km/h (4 Bft) 96,75 %
03.01.2016 19:15 -5,8 C 91 % 1009,2 hPa 0,0 l/m 19,3 km/h (3 Bft) O-NO 64 0 min 0,000 mm 0,0 UV-I 0 W/m -7,0 C -16,7 C 29,0 km/h (5 Bft) 100,00 %
03.01.2016 19:20 -5,8 C 91 % 1009,1 hPa 0,0 l/m 19,8 km/h (3 Bft) NO 42 0 min 0,000 mm 0,0 UV-I 0 W/m -7,0 C -17,0 C 29,0 km/h (5 Bft) 98,31 %
03.01.2016 19:25 -5,8 C 92 % 1009,0 hPa 0,0 l/m 14,1 km/h (3 Bft) NO 35 0 min 0,000 mm 0,0 UV-I 0 W/m -6,9 C -13,4 C 20,9 km/h (4 Bft) 99,12 %
03.01.2016 19:30 -5,8 C 91 % 1009,0 hPa 0,0 l/m 19,6 km/h (3 Bft) O-NO 71 0 min 0,000 mm 0,0 UV-I 0 W/m -7,0 C -16,9 C 30,6 km/h (5 Bft) 100,00 %
03.01.2016 19:35 -5,8 C 91 % 1008,9 hPa 0,0 l/m 17,1 km/h (3 Bft) O 81 0 min 0,000 mm 0,0 UV-I 0 W/m -7,0 C -15,4 C 27,4 km/h (4 Bft) 99,12 %
03.01.2016 19:40 -5,8 C 91 % 1009,0 hPa 0,0 l/m 17,5 km/h (3 Bft) NO 48 0 min 0,000 mm 0,0 UV-I 0 W/m -7,0 C -15,7 C 25,7 km/h (4 Bft) 100,00 %
03.01.2016 19:45 -5,8 C 91 % 1008,9 hPa 0,0 l/m 16,6 km/h (3 Bft) NO 46 0 min 0,000 mm 0,0 UV-I 0 W/m -7,0 C -15,1 C 24,1 km/h (4 Bft) 99,06 %
03.01.2016 19:50 -5,8 C 91 % 1008,8 hPa 0,0 l/m 16,0 km/h (3 Bft) O-NO 62 0 min 0,000 mm 0,0 UV-I 0 W/m -7,0 C -14,7 C 25,7 km/h (4 Bft) 100,00 %
03.01.2016 19:55 -5,8 C 91 % 1008,7 hPa 0,0 l/m 15,0 km/h (3 Bft) NO 56 0 min 0,000 mm 0,0 UV-I 0 W/m -7,0 C -14,0 C 24,1 km/h (4 Bft) 97,25 %
03.01.2016 20:00 -5,8 C 91 % 1008,6 hPa 0,0 l/m 19,7 km/h (3 Bft) NO 51 0 min 0,000 mm 0,0 UV-I 0 W/m -7,0 C -17,0 C 25,7 km/h (4 Bft) 99,19 %
03.01.2016 20:05 -5,9 C 91 % 1008,3 hPa 0,0 l/m 22,7 km/h (4 Bft) NO 44 0 min 0,000 mm 0,0 UV-I 0 W/m -7,1 C -18,6 C 29,0 km/h (5 Bft) 99,08 %
03.01.2016 20:10 -5,9 C 91 % 1008,2 hPa 0,0 l/m 18,5 km/h (3 Bft) NO 51 0 min 0,000 mm 0,0 UV-I 0 W/m -7,1 C -16,4 C 27,4 km/h (4 Bft) 100,00 %
03.01.2016 20:15 -5,9 C 91 % 1008,1 hPa 0,0 l/m 19,9 km/h (4 Bft) NO 53 0 min 0,000 mm 0,0 UV-I 0 W/m -7,1 C -17,2 C 29,0 km/h (5 Bft) 100,00 %
03.01.2016 20:20 -5,9 C 91 % 1007,9 hPa 0,0 l/m 22,3 km/h (4 Bft) O 82 0 min 0,000 mm 0,0 UV-I 0 W/m -7,1 C -18,5 C 32,2 km/h (5 Bft) 99,19 %
03.01.2016 20:25 -5,9 C 91 % 1007,8 hPa 0,0 l/m 21,4 km/h (4 Bft) O-NO 67 0 min 0,000 mm 0,0 UV-I 0 W/m -7,1 C -18,0 C 32,2 km/h (5 Bft) 99,13 %
03.01.2016 20:30 -5,9 C 91 % 1007,8 hPa 0,0 l/m 19,2 km/h (3 Bft) O-NO 64 0 min 0,000 mm 0,0 UV-I 0 W/m -7,1 C -16,8 C 27,4 km/h (4 Bft) 98,25 %
03.01.2016 20:35 -5,9 C 91 % 1007,9 hPa 0,0 l/m 16,2 km/h (3 Bft) NO 37 0 min 0,000 mm 0,0 UV-I 0 W/m -7,1 C -15,0 C 24,1 km/h (4 Bft) 100,00 %
03.01.2016 20:40 -5,9 C 91 % 1007,7 hPa 0,0 l/m 18,9 km/h (3 Bft) NO 55 0 min 0,000 mm 0,0 UV-I 0 W/m -7,1 C -16,6 C 27,4 km/h (4 Bft) 97,56 %
03.01.2016 20:45 -5,9 C 91 % 1007,4 hPa 0,0 l/m 21,4 km/h (4 Bft) NO 40 0 min 0,000 mm 0,0 UV-I 0 W/m -7,1 C -18,0 C 30,6 km/h (5 Bft) 98,21 %
03.01.2016 20:50 -5,9 C 92 % 1007,3 hPa 0,0 l/m 20,6 km/h (4 Bft) O-NO 71 0 min 0,000 mm 0,0 UV-I 0 W/m -7,0 C -17,6 C 30,6 km/h (5 Bft) 97,52 %
03.01.2016 20:55 -5,9 C 91 % 1007,0 hPa 0,0 l/m 22,9 km/h (4 Bft) NO 43 0 min 0,000 mm 0,0 UV-I 0 W/m -7,1 C -18,7 C 30,6 km/h (5 Bft) 97,44 %
03.01.2016 21:00 -6,0 C 91 % 1006,9 hPa 0,0 l/m 23,5 km/h (4 Bft) NO 55 0 min 0,000 mm 0,0 UV-I 0 W/m -7,2 C -19,2 C 32,2 km/h (5 Bft) 96,43 %
03.01.2016 21:05 -6,0 C 91 % 1006,9 hPa 0,0 l/m 25,7 km/h (4 Bft) O-NO 62 0 min 0,000 mm 0,0 UV-I 0 W/m -7,2 C -20,2 C 33,8 km/h (5 Bft) 97,52 %
03.01.2016 21:10 -6,0 C 91 % 1006,7 hPa 0,0 l/m 20,3 km/h (4 Bft) O 90 0 min 0,000 mm 0,0 UV-I 0 W/m -7,2 C -17,5 C 30,6 km/h (5 Bft) 98,20 %
03.01.2016 21:15 -5,9 C 92 % 1006,7 hPa 0,0 l/m 16,8 km/h (3 Bft) O-NO 78 0 min 0,000 mm 0,0 UV-I 0 W/m -7,0 C -15,3 C 27,4 km/h (4 Bft) 96,85 %
03.01.2016 21:20 -6,0 C 92 % 1006,7 hPa 0,0 l/m 16,6 km/h (3 Bft) O-NO 64 0 min 0,000 mm 0,0 UV-I 0 W/m -7,1 C -15,3 C 25,7 km/h (4 Bft) 99,12 %
03.01.2016 21:25 -6,0 C 92 % 1006,6 hPa 0,0 l/m 20,6 km/h (4 Bft) O-NO 64 0 min 0,000 mm 0,0 UV-I 0 W/m -7,1 C -17,7 C 27,4 km/h (4 Bft) 97,52 %
03.01.2016 21:30 -6,0 C 91 % 1006,4 hPa 0,0 l/m 21,3 km/h (4 Bft) O-NO 58 0 min 0,000 mm 0,0 UV-I 0 W/m -7,2 C -18,1 C 29,0 km/h (5 Bft) 99,11 %
03.01.2016 21:35 -6,0 C 91 % 1006,3 hPa 0,0 l/m 21,4 km/h (4 Bft) NO 55 0 min 0,000 mm 0,0 UV-I 0 W/m -7,2 C -18,1 C 33,8 km/h (5 Bft) 100,00 %
03.01.2016 21:40 -6,0 C 91 % 1006,3 hPa 0,0 l/m 19,9 km/h (4 Bft) O 86 0 min 0,000 mm 0,0 UV-I 0 W/m -7,2 C -17,3 C 27,4 km/h (4 Bft) 98,43 %
03.01.2016 21:45 -6,1 C 91 % 1006,2 hPa 0,0 l/m 20,8 km/h (4 Bft) O 83 0 min 0,000 mm 0,0 UV-I 0 W/m -7,3 C -17,9 C 29,0 km/h (5 Bft) 99,13 %
03.01.2016 21:50 -6,1 C 92 % 1006,0 hPa 0,0 l/m 19,0 km/h (3 Bft) O-NO 61 0 min 0,000 mm 0,0 UV-I 0 W/m -7,2 C -16,9 C 27,4 km/h (4 Bft) 98,37 %
03.01.2016 21:55 -6,1 C 91 % 1005,6 hPa 0,0 l/m 24,1 km/h (4 Bft) O-NO 59 0 min 0,000 mm 0,0 UV-I 0 W/m -7,3 C -19,6 C 32,2 km/h (5 Bft) 100,00 %
03.01.2016 22:00 -6,1 C 91 % 1005,4 hPa 0,0 l/m 27,0 km/h (4 Bft) O-NO 63 0 min 0,000 mm 0,0 UV-I 0 W/m -7,3 C -20,8 C 41,8 km/h (6 Bft) 99,11 %
03.01.2016 22:05 -6,2 C 92 % 1005,3 hPa 0,0 l/m 22,2 km/h (4 Bft) O-NO 67 0 min 0,000 mm 0,0 UV-I 0 W/m -7,3 C -18,8 C 33,8 km/h (5 Bft) 99,17 %
03.01.2016 22:10 -6,2 C 92 % 1005,1 hPa 0,0 l/m 24,6 km/h (4 Bft) O-NO 73 0 min 0,000 mm 0,0 UV-I 0 W/m -7,3 C -19,9 C 35,4 km/h (5 Bft) 100,00 %
03.01.2016 22:15 -6,3 C 92 % 1004,9 hPa 0,0 l/m 24,2 km/h (4 Bft) O-NO 57 0 min 0,000 mm 0,0 UV-I 0 W/m -7,4 C -19,9 C 38,6 km/h (5 Bft) 98,37 %
03.01.2016 22:20 -6,3 C 92 % 1004,5 hPa 0,0 l/m 23,9 km/h (4 Bft) O-NO 70 0 min 0,000 mm 0,0 UV-I 0 W/m -7,4 C -19,8 C 40,2 km/h (6 Bft) 99,13 %
03.01.2016 22:25 -6,4 C 92 % 1004,2 hPa 0,0 l/m 24,9 km/h (4 Bft) N-NO 30 0 min 0,000 mm 0,0 UV-I 0 W/m -7,5 C -20,3 C 38,6 km/h (5 Bft) 100,00 %
03.01.2016 22:30 -6,4 C 92 % 1004,0 hPa 0,0 l/m 24,4 km/h (4 Bft) NO 44 0 min 0,000 mm 0,0 UV-I 0 W/m -7,5 C -20,1 C 40,2 km/h (6 Bft) 99,05 %
03.01.2016 22:35 -6,4 C 92 % 1003,9 hPa 0,0 l/m 26,9 km/h (4 Bft) O-NO 59 0 min 0,000 mm 0,0 UV-I 0 W/m -7,5 C -21,2 C 43,5 km/h (6 Bft) 99,19 %
03.01.2016 22:40 -6,4 C 92 % 1004,0 hPa 0,0 l/m 20,7 km/h (4 Bft) NO 38 0 min 0,000 mm 0,0 UV-I 0 W/m -7,5 C -18,3 C 33,8 km/h (5 Bft) 100,00 %
03.01.2016 22:45 -6,4 C 92 % 1004,1 hPa 0,0 l/m 20,9 km/h (4 Bft) NO 53 0 min 0,000 mm 0,0 UV-I 0 W/m -7,5 C -18,4 C 30,6 km/h (5 Bft) 96,30 %
03.01.2016 22:50 -6,4 C 92 % 1004,1 hPa 0,0 l/m 23,6 km/h (4 Bft) O-NO 74 0 min 0,000 mm 0,0 UV-I 0 W/m -7,5 C -19,7 C 40,2 km/h (6 Bft) 97,52 %
03.01.2016 22:55 -6,4 C 93 % 1004,1 hPa 0,0 l/m 18,0 km/h (3 Bft) O-NO 57 0 min 0,000 mm 0,0 UV-I 0 W/m -7,3 C -16,7 C 25,7 km/h (4 Bft) 96,75 %
03.01.2016 23:00 -6,4 C 92 % 1004,0 hPa 0,0 l/m 21,4 km/h (4 Bft) O-NO 61 0 min 0,000 mm 0,0 UV-I 0 W/m -7,5 C -18,7 C 32,2 km/h (5 Bft) 98,11 %
03.01.2016 23:05 -6,4 C 92 % 1003,9 hPa 0,0 l/m 18,1 km/h (3 Bft) O-NO 63 0 min 0,000 mm 0,0 UV-I 0 W/m -7,5 C -16,8 C 30,6 km/h (5 Bft) 95,97 %
03.01.2016 23:10 -6,4 C 92 % 1003,9 hPa 0,0 l/m 15,2 km/h (3 Bft) O-NO 59 0 min 0,000 mm 0,0 UV-I 0 W/m -7,5 C -14,9 C 22,5 km/h (4 Bft) 96,67 %
03.01.2016 23:15 -6,4 C 92 % 1003,6 hPa 0,0 l/m 18,1 km/h (3 Bft) O-NO 59 0 min 0,000 mm 0,0 UV-I 0 W/m -7,5 C -16,8 C 29,0 km/h (5 Bft) 95,76 %
03.01.2016 23:20 -6,4 C 92 % 1003,3 hPa 0,0 l/m 23,6 km/h (4 Bft) NO 56 0 min 0,000 mm 0,0 UV-I 0 W/m -7,5 C -19,7 C 35,4 km/h (5 Bft) 97,32 %
03.01.2016 23:25 -6,4 C 92 % 1003,1 hPa 0,0 l/m 23,2 km/h (4 Bft) O-NO 59 0 min 0,000 mm 0,0 UV-I 0 W/m -7,5 C -19,6 C 33,8 km/h (5 Bft) 99,12 %
03.01.2016 23:30 -6,4 C 92 % 1003,0 hPa 0,0 l/m 20,7 km/h (4 Bft) O-NO 67 0 min 0,000 mm 0,0 UV-I 0 W/m -7,5 C -18,3 C 30,6 km/h (5 Bft) 99,17 %
03.01.2016 23:35 -6,4 C 92 % 1002,9 hPa 0,0 l/m 23,1 km/h (4 Bft) O-NO 63 0 min 0,000 mm 0,0 UV-I 0 W/m -7,5 C -19,5 C 33,8 km/h (5 Bft) 100,00 %
03.01.2016 23:40 -6,4 C 92 % 1003,0 hPa 0,0 l/m 20,5 km/h (4 Bft) O-NO 60 0 min 0,000 mm 0,0 UV-I 0 W/m -7,5 C -18,2 C 30,6 km/h (5 Bft) 99,08 %
03.01.2016 23:45 -6,4 C 92 % 1002,9 hPa 0,0 l/m 15,9 km/h (3 Bft) O-NO 72 0 min 0,000 mm 0,0 UV-I 0 W/m -7,5 C -15,4 C 25,7 km/h (4 Bft) 98,26 %
03.01.2016 23:50 -6,4 C 92 % 1002,8 hPa 0,0 l/m 12,6 km/h (3 Bft) NO 36 0 min 0,000 mm 0,0 UV-I 0 W/m -7,5 C -12,9 C 22,5 km/h (4 Bft) 99,21 %
03.01.2016 23:55 -6,4 C 92 % 1002,6 hPa 0,0 l/m 18,2 km/h (3 Bft) O-NO 61 0 min 0,000 mm 0,0 UV-I 0 W/m -7,5 C -16,9 C 29,0 km/h (5 Bft) 100,00 %
_ Min-Zeit 22:25 14:05 23:55 - 16:20 - - - - - - 22:25 22:35 01:40 08:40
Minimum _ -6,4 C 90 % 1002,6 hPa - 11,3 km/h (2 Bft) - - - - - - -7,5 C -21,2 C 17,7 km/h (3 Bft) 92,50 %
_ Max-Zeit 00:00 05:50 00:00 00:00 22:00 - - 10:35 11:00 00:00 12:00 00:00 01:40 22:35 00:10
Maximum _ -3,0 C 95 % 1016,2 hPa 0,0 l/m 27,0 km/h
O-NO (4 Bft)
- - 5 min 0,051 mm 0,0 UV-I 188 W/m -4,0 C -9,0 C 43,5 km/h
O-NO (6 Bft)
100,00 %
Durchschnitt _ -5,0 C 92 % 1012,5 hPa #0,0 l/m 18,1 km/h (3 Bft) O-NO - #25 min. #0,254 mm 0,0 UV-I 93 W/m -6,0 C -14,8 C 26,9 km/h (4 Bft) 98,54 %